Indianapolis, IN

8:11 PM EST on November 20, 2019 (GMT -0500)
Indianapolis International

Weather History for KIND - September, 2019

Change the Weather History Date:

Saturday, September 21, 2019

  Actual Average Record
Temperature  
Mean Temperature 79 °F 65 °F  
Max Temperature 88 °F 76 °F 96 °F (2010)
Min Temperature 69 °F 54 °F 35 °F (1875)
Degree Days  
Heating Degree Days 0 3  
Month to date heating degree days 0 28  
Since 1 July heating degree days 0 32  
Cooling Degree Days 14 3  
Month to date cooling degree days 197 109  
Year to date cooling degree days 1236 1030  
Growing Degree Days 28 (Base 50)    
Moisture  
Dew Point 64 °F    
Average Humidity 66    
Maximum Humidity 90    
Minimum Humidity 42    
Precipitation  
Precipitation 0.00 in 0.11 in 1.61 in (1965)
Month to date precipitation 0.01 2.16  
Year to date precipitation 36.56 31.49  
Snow  
Snow 0.00 in 0.00 in T in (2012)
Month to date snowfall 0.0 0.0  
Since 1 July snowfall 0.0 0.0  
Since 1 September snowfall 0.0 0.0  
Snow Depth 0.00 in    
Sea Level Pressure  
Sea Level Pressure 30.15 in    
Wind  
Wind Speed 9 mph (SSW)    
Max Wind Speed 21 mph    
Max Gust Speed 27 mph    
Visibility 10 miles    
Events      
T = Trace of Precipitation, MM = Missing Value Source: NWS Daily Summary

Daily Weather History Graph

Daily Weather History Graph

Search for Another Location

Airport or City:

Astronomy

Sep. 21, 2019 Rise Set
Actual Time 7:31 AM EDT 7:44 PM EDT
Civil Twilight 7:04 AM EDT 8:11 PM EDT
Nautical Twilight 6:33 AM EDT 8:42 PM EDT
Astronomical Twilight 6:00 AM EDT 9:14 PM EDT
Moon No Moon Rise 2:36 PM EDT
Length of Visible Light 13h 06m
Length of Day
12h 12m
Waning Gibbous, 55% of the Moon is Illuminated
Sep 21
Waning Gibbous
Sep 21
Last Quarter
Sep 28
New
Oct 5
First Quarter
Oct 13
Full

Hourly Weather History & Observations

Time (EDT) Temp. Heat Index Dew Point Humidity Pressure Visibility Wind Dir Wind Speed Gust Speed Precip Events Conditions
12:54 AM 73.0 °F - 66.9 °F 81% 30.15 in 10.0 mi SE 3.5 mph - N/A   Scattered Clouds
1:54 AM 71.1 °F - 66.9 °F 87% 30.15 in 10.0 mi SSW 4.6 mph - N/A   Scattered Clouds
2:54 AM 72.0 °F - 68.0 °F 87% 30.15 in 10.0 mi SW 6.9 mph - N/A   Scattered Clouds
3:54 AM 70.0 °F - 66.9 °F 90% 30.16 in 10.0 mi SW 4.6 mph - N/A   Scattered Clouds
4:54 AM 71.1 °F - 68.0 °F 90% 30.16 in 10.0 mi South 3.5 mph - N/A   Scattered Clouds
5:54 AM 70.0 °F - 66.9 °F 90% 30.17 in 10.0 mi SSW 5.8 mph - N/A   Scattered Clouds
6:54 AM 71.1 °F - 68.0 °F 90% 30.18 in 10.0 mi South 4.6 mph - N/A   Mostly Cloudy
7:54 AM 71.1 °F - 66.9 °F 87% 30.19 in 10.0 mi South 5.8 mph - N/A   Mostly Cloudy
8:54 AM 72.0 °F - 66.0 °F 81% 30.19 in 10.0 mi SSW 6.9 mph - N/A   Mostly Cloudy
9:54 AM 73.9 °F - 64.9 °F 73% 30.20 in 10.0 mi SSW 10.4 mph - N/A   Mostly Cloudy
10:54 AM 77.0 °F - 66.0 °F 69% 30.21 in 10.0 mi SSW 10.4 mph - N/A   Mostly Cloudy
11:54 AM 81.0 °F 82.7 °F 64.9 °F 58% 30.20 in 10.0 mi SW 11.5 mph - N/A   Mostly Cloudy
12:54 PM 82.9 °F 84.4 °F 64.0 °F 53% 30.19 in 10.0 mi WSW 15.0 mph - N/A   Mostly Cloudy
1:54 PM 84.9 °F 85.9 °F 63.0 °F 48% 30.17 in 10.0 mi SW 16.1 mph - N/A   Mostly Cloudy
2:54 PM 87.1 °F 87.5 °F 62.1 °F 43% 30.15 in 10.0 mi SSW 11.5 mph 26.5 mph N/A   Mostly Cloudy
3:54 PM 86.0 °F 86.8 °F 63.0 °F 46% 30.14 in 10.0 mi SW 15.0 mph 24.2 mph N/A   Mostly Cloudy
4:54 PM 86.0 °F 85.7 °F 60.1 °F 41% 30.12 in 10.0 mi SW 18.4 mph 24.2 mph N/A   Mostly Cloudy
5:54 PM 84.0 °F 84.5 °F 62.1 °F 47% 30.11 in 10.0 mi SW 12.7 mph - N/A   Mostly Cloudy
6:54 PM 81.0 °F 81.9 °F 62.1 °F 52% 30.11 in 10.0 mi SSW 9.2 mph - N/A   Mostly Cloudy
7:54 PM 80.1 °F 81.2 °F 62.1 °F 54% 30.11 in 10.0 mi South 6.9 mph - N/A   Mostly Cloudy
8:54 PM 78.1 °F - 61.0 °F 56% 30.11 in 10.0 mi South 8.1 mph - N/A   Mostly Cloudy
9:54 PM 78.1 °F - 61.0 °F 56% 30.11 in 10.0 mi South 9.2 mph - N/A   Mostly Cloudy
10:54 PM 75.9 °F - 61.0 °F 60% 30.11 in 10.0 mi South 6.9 mph - N/A   Mostly Cloudy
11:54 PM 75.9 °F - 59.0 °F 56% 30.10 in 10.0 mi South 9.2 mph - N/A   Mostly Cloudy